TimeCST,TemperatureF,Dew PointF,Humidity,Sea Level PressureIn,VisibilityMPH,Wind Direction,Wind SpeedMPH,Gust SpeedMPH,PrecipitationIn,Events,Conditions,WindDirDegrees,DateUTC
12:55 AM,69.1,68.0,96,30.12,4.0,SE,11.5,-,N/A,,Overcast,140,2013-11-22 06:55:00
1:42 AM,69.8,69.8,100,30.12,2.0,SSE,10.4,-,N/A,,Overcast,160,2013-11-22 07:42:00
1:55 AM,69.1,69.1,100,30.13,2.5,SSE,6.9,-,N/A,,Overcast,150,2013-11-22 07:55:00
2:12 AM,71.6,69.8,94,30.12,1.8,SE,9.2,-,N/A,,Overcast,140,2013-11-22 08:12:00
2:55 AM,68.0,68.0,100,30.13,1.8,SSE,8.1,-,N/A,,Overcast,150,2013-11-22 08:55:00
3:40 AM,68.0,68.0,100,30.11,2.0,SSE,8.1,-,N/A,,Overcast,150,2013-11-22 09:40:00
3:55 AM,68.0,68.0,100,30.12,1.5,SSE,8.1,-,N/A,,Overcast,160,2013-11-22 09:55:00
4:04 AM,68.0,68.0,100,30.11,1.2,SSE,8.1,-,N/A,,Overcast,150,2013-11-22 10:04:00
4:24 AM,68.0,68.0,100,30.13,1.8,SE,5.8,-,N/A,,Overcast,130,2013-11-22 10:24:00
4:31 AM,68.0,68.0,100,30.14,2.0,SSE,5.8,-,N/A,,Overcast,150,2013-11-22 10:31:00
4:44 AM,68.0,68.0,100,30.14,1.5,SSE,5.8,-,N/A,,Overcast,160,2013-11-22 10:44:00
4:52 AM,68.0,68.0,100,30.14,1.2,SSE,6.9,-,N/A,,Overcast,160,2013-11-22 10:52:00
4:55 AM,68.0,68.0,100,30.15,1.2,SSE,6.9,-,N/A,,Overcast,160,2013-11-22 10:55:00
5:08 AM,68.0,68.0,100,30.15,1.5,SSE,9.2,-,N/A,,Overcast,150,2013-11-22 11:08:00
5:20 AM,68.0,68.0,100,30.15,1.2,SE,9.2,-,N/A,,Overcast,140,2013-11-22 11:20:00
5:34 AM,68.0,68.0,100,30.15,1.0,SE,8.1,-,N/A,,Mist,140,2013-11-22 11:34:00
5:48 AM,66.2,66.2,100,30.15,0.8,SE,8.1,-,N/A,,Mist,140,2013-11-22 11:48:00
5:55 AM,66.9,66.9,100,30.16,0.8,SE,6.9,-,N/A,,Mist,140,2013-11-22 11:55:00
6:15 AM,66.2,66.2,100,30.15,1.0,SE,8.1,-,N/A,,Mist,140,2013-11-22 12:15:00
6:55 AM,66.9,66.9,100,30.17,1.2,SE,8.1,-,N/A,,Overcast,140,2013-11-22 12:55:00
7:26 AM,66.2,66.2,100,30.18,1.5,SE,4.6,-,N/A,,Overcast,130,2013-11-22 13:26:00
7:55 AM,68.0,66.9,96,30.20,1.2,ESE,3.5,-,N/A,,Overcast,110,2013-11-22 13:55:00
8:12 AM,68.0,66.2,94,30.20,1.5,ENE,3.5,-,N/A,,Overcast,70,2013-11-22 14:12:00
8:39 AM,68.0,68.0,100,30.22,1.2,NNE,3.5,-,N/A,,Overcast,30,2013-11-22 14:39:00
8:46 AM,68.0,66.2,94,30.22,1.0,NNE,5.8,-,N/A,,Overcast,20,2013-11-22 14:46:00
8:55 AM,68.0,66.9,96,30.23,0.8,NNE,6.9,-,N/A,,Overcast,30,2013-11-22 14:55:00
9:27 AM,66.2,66.2,100,30.23,1.2,NE,5.8,-,0.01,Rain,Light Rain,50,2013-11-22 15:27:00
9:32 AM,66.2,66.2,100,30.23,2.0,NE,10.4,16.1,0.01,Rain,Light Rain,50,2013-11-22 15:32:00
9:37 AM,66.2,66.2,100,30.23,3.0,NE,8.1,16.1,0.01,Rain,Light Rain,50,2013-11-22 15:37:00
9:43 AM,66.2,66.2,100,30.24,4.0,ENE,5.8,-,0.02,Rain,Light Rain,60,2013-11-22 15:43:00
9:55 AM,66.0,66.0,100,30.25,6.0,ENE,6.9,-,0.02,Rain,Light Rain,60,2013-11-22 15:55:00
10:05 AM,66.2,64.4,94,30.24,3.0,ENE,6.9,-,0.02,Rain,Rain,70,2013-11-22 16:05:00
10:55 AM,66.0,66.0,100,30.23,10.0,ENE,4.6,-,0.04,,Overcast,70,2013-11-22 16:55:00
11:02 AM,66.2,64.4,94,30.22,10.0,East,9.2,-,N/A,,Overcast,80,2013-11-22 17:02:00
11:34 AM,66.2,64.4,94,30.22,10.0,ENE,3.5,-,N/A,,Overcast,70,2013-11-22 17:34:00
11:46 AM,66.2,64.4,94,30.22,10.0,NE,4.6,-,N/A,,Overcast,50,2013-11-22 17:46:00
11:55 AM,66.9,64.9,93,30.22,10.0,ENE,6.9,-,N/A,,Overcast,60,2013-11-22 17:55:00
12:12 PM,66.2,64.4,94,30.21,2.5,East,4.6,-,0.03,Rain,Heavy Rain,100,2013-11-22 18:12:00
12:22 PM,66.2,64.4,94,30.21,8.0,ENE,3.5,-,0.04,Rain,Light Rain,70,2013-11-22 18:22:00
12:32 PM,68.0,66.2,94,30.21,10.0,East,6.9,-,0.04,,Overcast,90,2013-11-22 18:32:00
12:55 PM,68.0,66.0,93,30.20,10.0,ENE,5.8,-,0.04,Rain,Light Rain,70,2013-11-22 18:55:00
1:21 PM,68.0,66.2,94,30.18,10.0,ENE,8.1,-,0.00,,Mostly Cloudy,60,2013-11-22 19:21:00
1:55 PM,69.1,66.0,90,30.18,10.0,East,5.8,-,0.00,,Overcast,90,2013-11-22 19:55:00
2:03 PM,69.8,66.2,88,30.17,10.0,East,5.8,-,N/A,,Overcast,80,2013-11-22 20:03:00
2:36 PM,69.8,64.4,83,30.16,10.0,ENE,4.6,-,N/A,,Overcast,70,2013-11-22 20:36:00
2:55 PM,69.1,64.9,87,30.17,10.0,ENE,3.5,-,N/A,,Overcast,70,2013-11-22 20:55:00
3:55 PM,69.1,64.9,87,30.17,10.0,Calm,Calm,-,N/A,,Mostly Cloudy,0,2013-11-22 21:55:00
4:36 PM,68.0,64.4,88,30.17,10.0,NNE,3.5,-,N/A,,Overcast,30,2013-11-22 22:36:00
4:47 PM,68.0,64.4,88,30.17,10.0,NNE,3.5,-,N/A,,Overcast,30,2013-11-22 22:47:00
4:55 PM,68.0,64.9,90,30.18,10.0,NNE,5.8,-,N/A,,Overcast,20,2013-11-22 22:55:00
5:10 PM,66.2,64.4,94,30.18,10.0,NNE,3.5,-,N/A,,Overcast,30,2013-11-22 23:10:00
5:55 PM,66.9,64.9,93,30.20,10.0,North,4.6,-,N/A,,Overcast,10,2013-11-22 23:55:00
6:41 PM,66.2,64.4,94,30.20,10.0,NNW,4.6,-,N/A,,Overcast,340,2013-11-23 00:41:00
6:51 PM,64.0,63.0,96,30.21,10.0,NW,8.1,-,N/A,,Overcast,310,2013-11-23 00:51:00
6:58 PM,62.6,62.6,100,30.21,10.0,NW,10.4,-,N/A,,Overcast,310,2013-11-23 00:58:00
7:10 PM,60.8,60.8,100,30.21,3.0,NW,10.4,-,N/A,,Overcast,310,2013-11-23 01:10:00
7:15 PM,60.8,60.8,100,30.21,1.8,NW,11.5,-,N/A,,Overcast,310,2013-11-23 01:15:00
7:26 PM,60.8,60.8,100,30.22,1.2,NW,9.2,-,N/A,,Overcast,320,2013-11-23 01:26:00
7:38 PM,59.0,59.0,100,30.21,1.5,NW,10.4,-,N/A,,Overcast,320,2013-11-23 01:38:00
7:55 PM,59.0,59.0,100,30.23,1.8,NNW,6.9,-,N/A,,Overcast,330,2013-11-23 01:55:00
8:19 PM,59.0,59.0,100,30.22,2.0,NNW,9.2,-,N/A,,Overcast,330,2013-11-23 02:19:00
8:33 PM,59.0,59.0,100,30.23,1.8,NNW,6.9,-,N/A,,Overcast,330,2013-11-23 02:33:00
8:44 PM,59.0,57.2,94,30.23,2.0,NNW,9.2,-,N/A,,Overcast,340,2013-11-23 02:44:00
8:55 PM,59.0,59.0,100,30.24,3.0,NNW,6.9,-,N/A,,Overcast,340,2013-11-23 02:55:00
9:45 PM,57.2,57.2,100,30.24,10.0,NNW,9.2,-,0.01,,Overcast,340,2013-11-23 03:45:00
9:55 PM,57.9,57.9,100,30.25,9.0,NNW,9.2,-,0.01,,Overcast,330,2013-11-23 03:55:00
10:55 PM,57.9,57.0,97,30.24,4.0,North,6.9,-,N/A,,Overcast,350,2013-11-23 04:55:00
11:55 PM,57.9,57.9,100,30.23,3.0,NNE,8.1,-,N/A,,Overcast,20,2013-11-23 05:55:00